| time (UTC) | temp F | wind direction | speed MPH | gust MPH | rain 1hr in | rain 24hr in | rain mn in | humidity % | barometer mb |
| 20260506051232 | 74 | 155 | 2.0 | 4.0 | 0.00 | 0.00 | 0.00 | 94 | 1007.2 |
| 20260506050730 | 74 | 180 | 1.0 | 4.0 | 0.00 | 0.00 | 0.00 | 93 | 1007.4 |
| 20260506050227 | 74 | 202 | 0.0 | 3.0 | 0.00 | 0.00 | 0.00 | 93 | 1007.4 |
| 20260506044718 | 75 | 37 | 0.0 | 2.0 | 0.00 | 0.00 | 0.00 | 92 | 1007.5 |
| 20260506044215 | 75 | 206 | 1.0 | 3.0 | 0.00 | 0.00 | 0.00 | 92 | 1007.5 |
| 20260506043712 | 75 | 344 | 2.0 | 7.0 | 0.00 | 0.00 | 0.00 | 91 | 1007.4 |
| 20260506043210 | 75 | 216 | 2.0 | 3.0 | 0.00 | 0.00 | 0.00 | 91 | 1007.3 |
| 20260506042709 | 75 | 245 | 0.0 | 3.0 | 0.00 | 0.00 | 0.00 | 91 | 1007.2 |
| 20260506042206 | 75 | 162 | 0.0 | 2.0 | 0.00 | 0.00 | 0.00 | 91 | 1007.2 |
| 20260506041705 | 75 | 44 | 0.0 | 3.0 | 0.00 | 0.00 | 0.00 | 91 | 1007.2 |
| 20260506041201 | 75 | 75 | 0.0 | 2.0 | 0.00 | 0.00 | 0.00 | 90 | 1007.4 |
| 20260506040658 | 75 | 11 | 0.0 | 2.0 | 0.00 | 0.00 | 0.00 | 90 | 1007.4 |
| 20260506040155 | 75 | 50 | 0.0 | 3.0 | 0.00 | 0.00 | 0.00 | 90 | 1007.2 |
| 20260506035652 | 75 | 249 | 0.0 | 4.0 | 0.00 | 0.00 | 0.00 | 90 | 1007.2 |
| 20260506035149 | 75 | 164 | 0.0 | 3.0 | 0.00 | 0.00 | 0.00 | 89 | 1007.5 |
| 20260506034646 | 75 | 140 | 0.0 | 3.0 | 0.00 | 0.00 | 0.00 | 89 | 1007.4 |
| 20260506034143 | 75 | 104 | 0.0 | 3.0 | 0.00 | 0.00 | 0.00 | 89 | 1007.0 |
| 20260506033640 | 75 | 245 | 0.0 | 3.0 | 0.00 | 0.00 | 0.00 | 89 | 1007.1 |
| 20260506033137 | 76 | 71 | 0.0 | 3.0 | 0.00 | 0.00 | 0.00 | 88 | 1007.0 |
| 20260506032634 | 76 | 238 | 0.0 | 4.0 | 0.00 | 0.00 | 0.00 | 88 | 1007.1 |
| 20260506032131 | 76 | 210 | 3.0 | 3.0 | 0.00 | 0.00 | 0.00 | 88 | 1007.1 |
| 20260506031628 | 76 | 61 | 0.0 | 4.0 | 0.00 | 0.00 | 0.00 | 87 | 1006.9 |
| 20260506031125 | 76 | 217 | 3.0 | 5.0 | 0.00 | 0.00 | 0.00 | 87 | 1006.9 |
| 20260506030624 | 76 | 322 | 0.0 | 3.0 | 0.00 | 0.00 | 0.00 | 86 | 1006.9 |
| 20260506030120 | 76 | 296 | 0.0 | 4.0 | 0.00 | 0.00 | 0.00 | 86 | 1007.1 |
| 20260506025617 | 76 | 217 | 0.0 | 4.0 | 0.00 | 0.00 | 0.00 | 86 | 1006.7 |
| 20260506025113 | 76 | 105 | 1.0 | 5.0 | 0.00 | 0.00 | 0.00 | 86 | 1006.6 |
| 20260506024611 | 77 | 208 | 1.0 | 4.0 | 0.00 | 0.00 | 0.00 | 85 | 1006.5 |
| 20260506024107 | 77 | 226 | 0.0 | 2.0 | 0.00 | 0.00 | 0.00 | 85 | 1006.4 |
| 20260506023603 | 77 | 230 | 0.0 | 2.0 | 0.00 | 0.00 | 0.00 | 85 | 1006.2 |
| 20260506023101 | 77 | 319 | 1.0 | 2.0 | 0.00 | 0.00 | 0.00 | 84 | 1006.1 |
| 20260506022558 | 77 | 164 | 0.0 | 3.0 | 0.00 | 0.00 | 0.00 | 84 | 1006.2 |
| 20260506022055 | 77 | 244 | 0.0 | 2.0 | 0.00 | 0.00 | 0.00 | 84 | 1006.3 |
| 20260506021553 | 77 | 64 | 1.0 | 3.0 | 0.00 | 0.00 | 0.00 | 84 | 1006.3 |
| 20260506021050 | 77 | 337 | 0.0 | 4.0 | 0.00 | 0.00 | 0.00 | 83 | 1006.2 |
| 20260506020547 | 78 | 142 | 1.0 | 3.0 | 0.00 | 0.00 | 0.00 | 83 | 1006.1 |
| 20260506020044 | 78 | 230 | 0.0 | 1.0 | 0.00 | 0.00 | 0.00 | 83 | 1006.1 |
| 20260506015542 | 78 | 150 | 0.0 | 3.0 | 0.00 | 0.00 | 0.00 | 82 | 1006.1 |
| 20260506015039 | 78 | 77 | 1.0 | 3.0 | 0.00 | 0.00 | 0.00 | 82 | 1005.7 |
| 20260506014536 | 78 | 208 | 0.0 | 3.0 | 0.00 | 0.00 | 0.00 | 82 | 1005.8 |
| 20260506014032 | 79 | 22 | 0.0 | 2.0 | 0.00 | 0.00 | 0.00 | 81 | 1005.7 |
| 20260506013531 | 79 | 118 | 1.0 | 5.0 | 0.00 | 0.00 | 0.00 | 81 | 1005.8 |
| 20260506013026 | 79 | 60 | 2.0 | 4.0 | 0.00 | 0.00 | 0.00 | 81 | 1005.6 |
| 20260506012522 | 79 | 49 | 1.0 | 5.0 | 0.00 | 0.00 | 0.00 | 80 | 1005.4 |
| 20260506012020 | 79 | 185 | 2.0 | 3.0 | 0.00 | 0.00 | 0.00 | 80 | 1005.5 |
| 20260506011517 | 80 | 164 | 0.0 | 5.0 | 0.00 | 0.00 | 0.00 | 79 | 1005.5 |
| 20260506011014 | 80 | 135 | 2.0 | 2.0 | 0.00 | 0.00 | 0.00 | 79 | 1005.3 |
| 20260506010513 | 80 | 39 | 2.0 | 3.0 | 0.00 | 0.00 | 0.00 | 78 | 1005.3 |
| 20260506010009 | 80 | 288 | 0.0 | 2.0 | 0.00 | 0.00 | 0.00 | 78 | 1005.5 |
| 20260506005507 | 81 | 251 | 1.0 | 3.0 | 0.00 | 0.00 | 0.00 | 77 | 1005.3 |
| 20260506005002 | 81 | 191 | 2.0 | 4.0 | 0.00 | 0.00 | 0.00 | 76 | 1005.3 |
| 20260506004500 | 81 | 193 | 6.0 | 9.0 | 0.00 | 0.00 | 0.00 | 76 | 1005.3 |
| 20260506003955 | 82 | 213 | 2.0 | 5.0 | 0.00 | 0.00 | 0.00 | 75 | 1005.0 |
| 20260506003452 | 82 | 216 | 6.0 | 7.0 | 0.00 | 0.00 | 0.00 | 74 | 1005.2 |
| 20260506002948 | 82 | 78 | 1.0 | 5.0 | 0.00 | 0.00 | 0.00 | 74 | 1005.1 |
| 20260506002445 | 83 | 139 | 2.0 | 6.0 | 0.00 | 0.00 | 0.00 | 73 | 1005.3 |
| 20260506001940 | 83 | 75 | 0.0 | 3.0 | 0.00 | 0.00 | 0.00 | 73 | 1005.3 |
| 20260506001437 | 84 | 154 | 2.0 | 4.0 | 0.00 | 0.00 | 0.00 | 72 | 1005.3 |
| 20260506000935 | 85 | 249 | 1.0 | 4.0 | 0.00 | 0.00 | 0.00 | 71 | 1005.3 |
| 20260506000432 | 85 | 193 | 0.0 | 4.0 | 0.00 | 0.00 | 0.00 | 71 | 1005.2 |
| 20260505235929 | 85 | 117 | 1.0 | 2.0 | 0.00 | 0.00 | 0.00 | 71 | 1005.2 |
| 20260505235427 | 85 | 48 | 0.0 | 2.0 | 0.00 | 0.00 | 0.00 | 70 | 1005.4 |
| 20260505234923 | 85 | 79 | 1.0 | 4.0 | 0.00 | 0.00 | 0.00 | 70 | 1005.3 |
| 20260505234421 | 86 | 169 | 2.0 | 5.0 | 0.00 | 0.00 | 0.00 | 70 | 1005.2 |
| 20260505233917 | 86 | 254 | 2.0 | 4.0 | 0.00 | 0.00 | 0.00 | 67 | 1005.3 |
| 20260505233416 | 86 | 39 | 0.0 | 3.0 | 0.00 | 0.00 | 0.00 | 64 | 1005.2 |
| 20260505232913 | 86 | 169 | 2.0 | 2.0 | 0.00 | 0.00 | 0.00 | 63 | 1005.1 |
| 20260505232411 | 86 | 243 | 0.0 | 2.0 | 0.00 | 0.00 | 0.00 | 64 | 1005.1 |
| 20260505231907 | 87 | 244 | 2.0 | 5.0 | 0.00 | 0.00 | 0.00 | 63 | 1005.2 |
| 20260505231405 | 87 | 193 | 4.0 | 5.0 | 0.00 | 0.00 | 0.00 | 62 | 1005.2 |
| 20260505230903 | 88 | 245 | 1.0 | 3.0 | 0.00 | 0.00 | 0.00 | 62 | 1005.1 |
| 20260505230400 | 87 | 231 | 0.0 | 5.0 | 0.00 | 0.00 | 0.00 | 64 | 1005.1 |
| 20260505225856 | 87 | 314 | 0.0 | 1.0 | 0.00 | 0.00 | 0.00 | 62 | 1004.9 |
| 20260505225354 | 87 | 215 | 0.0 | 5.0 | 0.00 | 0.00 | 0.00 | 64 | 1005.0 |
| 20260505224848 | 87 | 136 | 6.0 | 7.0 | 0.00 | 0.00 | 0.00 | 64 | 1005.0 |
| 20260505224347 | 88 | 209 | 1.0 | 9.0 | 0.00 | 0.00 | 0.00 | 62 | 1005.0 |
| 20260505223843 | 89 | 252 | 5.0 | 6.0 | 0.00 | 0.00 | 0.00 | 62 | 1005.0 |
| 20260505223340 | 88 | 78 | 5.0 | 6.0 | 0.00 | 0.00 | 0.00 | 63 | 1005.0 |
| 20260505222836 | 88 | 136 | 1.0 | 7.0 | 0.00 | 0.00 | 0.00 | 62 | 1005.2 |
| 20260505222332 | 88 | 57 | 0.0 | 3.0 | 0.00 | 0.00 | 0.00 | 62 | 1005.0 |
| 20260505221830 | 89 | 225 | 2.0 | 5.0 | 0.00 | 0.00 | 0.00 | 62 | 1005.1 |
| 20260505221326 | 89 | 240 | 4.0 | 6.0 | 0.00 | 0.00 | 0.00 | 62 | 1005.1 |
| 20260505220823 | 89 | 346 | 2.0 | 4.0 | 0.00 | 0.00 | 0.00 | 63 | 1005.0 |
| 20260505220320 | 88 | 158 | 2.0 | 6.0 | 0.00 | 0.00 | 0.00 | 64 | 1004.9 |
| 20260505215818 | 88 | 208 | 2.0 | 4.0 | 0.00 | 0.00 | 0.00 | 63 | 1005.0 |
| 20260505215316 | 89 | 229 | 2.0 | 5.0 | 0.00 | 0.00 | 0.00 | 62 | 1005.1 |
| 20260505214814 | 89 | 215 | 3.0 | 5.0 | 0.00 | 0.00 | 0.00 | 62 | 1005.1 |
| 20260505214311 | 89 | 224 | 4.0 | 4.0 | 0.00 | 0.00 | 0.00 | 63 | 1005.1 |
| 20260505213808 | 90 | 134 | 1.0 | 3.0 | 0.00 | 0.00 | 0.00 | 62 | 1005.1 |
| 20260505213306 | 88 | 217 | 3.0 | 7.0 | 0.00 | 0.00 | 0.00 | 64 | 1005.4 |
| 20260505212801 | 88 | 336 | 0.0 | 6.0 | 0.00 | 0.00 | 0.00 | 64 | 1005.4 |
| 20260505212259 | 88 | 240 | 5.0 | 5.0 | 0.00 | 0.00 | 0.00 | 63 | 1005.5 |
| 20260505211755 | 88 | 298 | 2.0 | 3.0 | 0.00 | 0.00 | 0.00 | 64 | 1005.4 |
| 20260505211253 | 88 | 49 | 3.0 | 5.0 | 0.00 | 0.00 | 0.00 | 65 | 1005.4 |
| 20260505210749 | 91 | 254 | 5.0 | 5.0 | 0.00 | 0.00 | 0.00 | 60 | 1005.5 |
| 20260505210246 | 89 | 121 | 0.0 | 2.0 | 0.00 | 0.00 | 0.00 | 66 | 1005.5 |
| 20260505205743 | 89 | 217 | 3.0 | 4.0 | 0.00 | 0.00 | 0.00 | 62 | 1005.5 |
| 20260505205241 | 88 | 249 | 4.0 | 6.0 | 0.00 | 0.00 | 0.00 | 64 | 1005.6 |
| 20260505204737 | 89 | 269 | 0.0 | 7.0 | 0.00 | 0.00 | 0.00 | 64 | 1005.7 |
| 20260505204236 | 88 | 176 | 2.0 | 5.0 | 0.00 | 0.00 | 0.00 | 65 | 1005.9 |
| 20260505203732 | 89 | 139 | 1.0 | 6.0 | 0.00 | 0.00 | 0.00 | 65 | 1006.0 |
| 20260505203229 | 88 | 191 | 3.0 | 9.0 | 0.00 | 0.00 | 0.00 | 64 | 1006.0 |
| 20260505202725 | 89 | 298 | 1.0 | 4.0 | 0.00 | 0.00 | 0.00 | 63 | 1006.0 |
| 20260505202221 | 88 | 152 | 1.0 | 5.0 | 0.00 | 0.00 | 0.00 | 64 | 1005.8 |
| 20260505201718 | 88 | 282 | 3.0 | 5.0 | 0.00 | 0.00 | 0.00 | 63 | 1005.9 |
| 20260505201216 | 88 | 76 | 0.0 | 6.0 | 0.00 | 0.00 | 0.00 | 64 | 1005.7 |
| 20260505200714 | 89 | 145 | 0.0 | 6.0 | 0.00 | 0.00 | 0.00 | 62 | 1005.9 |
| 20260505200210 | 89 | 59 | 1.0 | 9.0 | 0.00 | 0.00 | 0.00 | 64 | 1005.8 |
| 20260505195706 | 89 | 69 | 2.0 | 4.0 | 0.00 | 0.00 | 0.00 | 63 | 1005.8 |
| 20260505195204 | 88 | 49 | 4.0 | 7.0 | 0.00 | 0.00 | 0.00 | 64 | 1006.0 |
| 20260505194701 | 87 | 181 | 0.0 | 5.0 | 0.00 | 0.00 | 0.00 | 66 | 1006.1 |
| 20260505194157 | 87 | 243 | 2.0 | 5.0 | 0.00 | 0.00 | 0.00 | 64 | 1006.1 |
| 20260505193653 | 87 | 93 | 5.0 | 8.0 | 0.00 | 0.00 | 0.00 | 64 | 1006.0 |
| 20260505193151 | 87 | 216 | 3.0 | 8.0 | 0.00 | 0.00 | 0.00 | 65 | 1006.1 |
| 20260505192649 | 86 | 197 | 2.0 | 6.0 | 0.00 | 0.00 | 0.00 | 66 | 1006.4 |
| 20260505192146 | 86 | 238 | 4.0 | 11.0 | 0.00 | 0.00 | 0.00 | 66 | 1006.3 |
| 20260505191645 | 86 | 113 | 3.0 | 6.0 | 0.00 | 0.00 | 0.00 | 67 | 1006.3 |
| 20260505191142 | 86 | 99 | 5.0 | 6.0 | 0.00 | 0.00 | 0.00 | 68 | 1006.4 |
| 20260505190638 | 86 | 271 | 4.0 | 10.0 | 0.00 | 0.00 | 0.00 | 68 | 1006.4 |
| 20260505190133 | 85 | 207 | 3.0 | 6.0 | 0.00 | 0.00 | 0.00 | 68 | 1006.3 |
| 20260505185630 | 85 | 123 | 5.0 | 11.0 | 0.00 | 0.00 | 0.00 | 69 | 1006.5 |
| 20260505185126 | 85 | 108 | 0.0 | 6.0 | 0.00 | 0.00 | 0.00 | 71 | 1006.9 |
| 20260505184623 | 85 | 271 | 0.0 | 7.0 | 0.00 | 0.00 | 0.00 | 70 | 1006.9 |
| 20260505184120 | 84 | 155 | 0.0 | 9.0 | 0.00 | 0.00 | 0.00 | 71 | 1006.7 |
| 20260505183616 | 84 | 111 | 2.0 | 7.0 | 0.00 | 0.00 | 0.00 | 71 | 1007.0 |
| 20260505183114 | 85 | 103 | 0.0 | 8.0 | 0.00 | 0.00 | 0.00 | 72 | 1007.1 |
| 20260505182610 | 85 | 245 | 6.0 | 11.0 | 0.00 | 0.00 | 0.00 | 69 | 1007.1 |
| 20260505182107 | 85 | 109 | 0.0 | 9.0 | 0.00 | 0.00 | 0.00 | 70 | 1007.2 |
| 20260505181604 | 84 | 248 | 2.0 | 6.0 | 0.00 | 0.00 | 0.00 | 70 | 1007.0 |
| 20260505181101 | 84 | 202 | 3.0 | 8.0 | 0.00 | 0.00 | 0.00 | 71 | 1007.3 |
| 20260505180556 | 83 | 192 | 1.0 | 8.0 | 0.00 | 0.00 | 0.00 | 72 | 1007.3 |
| 20260505180055 | 83 | 145 | 4.0 | 8.0 | 0.00 | 0.00 | 0.00 | 71 | 1007.4 |
| 20260505175550 | 84 | 220 | 0.0 | 5.0 | 0.00 | 0.00 | 0.00 | 70 | 1007.3 |
| 20260505175047 | 84 | 123 | 0.0 | 4.0 | 0.00 | 0.00 | 0.00 | 71 | 1007.6 |
| 20260505174544 | 83 | 190 | 4.0 | 11.0 | 0.00 | 0.00 | 0.00 | 71 | 1007.6 |
| 20260505174040 | 82 | 25 | 0.0 | 12.0 | 0.00 | 0.00 | 0.00 | 75 | 1007.6 |
| 20260505173537 | 84 | 60 | 2.0 | 9.0 | 0.00 | 0.00 | 0.00 | 71 | 1007.4 |
| 20260505173034 | 83 | 215 | 2.0 | 4.0 | 0.00 | 0.00 | 0.00 | 72 | 1007.5 |
| 20260505172532 | 82 | 268 | 5.0 | 8.0 | 0.00 | 0.00 | 0.00 | 72 | 1007.6 |
| 20260505172028 | 83 | 256 | 7.0 | 8.0 | 0.00 | 0.00 | 0.00 | 71 | 1007.8 |
| 20260505171522 | 83 | 250 | 8.0 | 11.0 | 0.00 | 0.00 | 0.00 | 72 | 1007.6 |
| 20260505171020 | 82 | 262 | 1.0 | 5.0 | 0.00 | 0.00 | 0.00 | 74 | 1007.5 |
| 20260505170516 | 81 | 242 | 4.0 | 14.0 | 0.00 | 0.00 | 0.00 | 74 | 1007.5 |
| 20260505170012 | 82 | 137 | 0.0 | 6.0 | 0.00 | 0.00 | 0.00 | 73 | 1007.3 |
| 20260505165507 | 81 | 240 | 1.0 | 12.0 | 0.00 | 0.00 | 0.00 | 73 | 1007.2 |
| 20260505165004 | 81 | 244 | 7.0 | 13.0 | 0.00 | 0.00 | 0.00 | 73 | 1007.3 |
| 20260505164500 | 80 | 227 | 4.0 | 15.0 | 0.00 | 0.00 | 0.00 | 74 | 1007.4 |
| 20260505163958 | 81 | 181 | 3.0 | 5.0 | 0.00 | 0.00 | 0.00 | 74 | 1007.4 |
| 20260505163456 | 80 | 263 | 4.0 | 10.0 | 0.00 | 0.00 | 0.00 | 74 | 1007.4 |
| 20260505162956 | 80 | 262 | 3.0 | 11.0 | 0.00 | 0.00 | 0.00 | 75 | 1007.3 |
| 20260505162451 | 80 | 175 | 3.0 | 7.0 | 0.00 | 0.00 | 0.00 | 75 | 1007.4 |
| 20260505161948 | 80 | 193 | 4.0 | 10.0 | 0.00 | 0.00 | 0.00 | 75 | 1007.5 |
| 20260505161444 | 80 | 154 | 2.0 | 6.0 | 0.00 | 0.00 | 0.00 | 75 | 1007.8 |
| 20260505160942 | 79 | 236 | 2.0 | 9.0 | 0.00 | 0.00 | 0.00 | 76 | 1007.6 |
| 20260505160440 | 79 | 159 | 2.0 | 8.0 | 0.00 | 0.00 | 0.00 | 76 | 1007.8 |
| 20260505152916 | 78 | 256 | 2.0 | 9.0 | 0.00 | 0.00 | 0.00 | 79 | 1007.6 |
| 20260505152413 | 77 | 203 | 3.0 | 7.0 | 0.00 | 0.00 | 0.00 | 80 | 1007.6 |
| 20260505151908 | 77 | 195 | 6.0 | 6.0 | 0.00 | 0.00 | 0.00 | 80 | 1007.6 |
| 20260505151405 | 77 | 259 | 4.0 | 12.0 | 0.00 | 0.00 | 0.00 | 80 | 1007.6 |
| 20260505150902 | 77 | 242 | 2.0 | 6.0 | 0.00 | 0.00 | 0.00 | 80 | 1007.6 |
| 20260505150359 | 76 | 216 | 2.0 | 11.0 | 0.00 | 0.00 | 0.00 | 82 | 1007.6 |
| 20260505140328 | 73 | 53 | 2.0 | 7.0 | 0.00 | 0.00 | 0.00 | 87 | 1007.5 |
| 20260505130252 | 72 | 60 | 3.0 | 7.0 | 0.00 | 0.00 | 0.00 | 89 | 1006.8 |
| 20260505124742 | 71 | 274 | 1.0 | 8.0 | 0.00 | 0.00 | 0.00 | 89 | 1006.7 |
| 20260505124239 | 71 | 324 | 2.0 | 6.0 | 0.00 | 0.00 | 0.00 | 89 | 1006.4 |
| 20260505123734 | 71 | 271 | 2.0 | 6.0 | 0.00 | 0.00 | 0.00 | 89 | 1006.4 |
| 20260505123231 | 71 | 206 | 0.0 | 7.0 | 0.00 | 0.00 | 0.00 | 90 | 1006.4 |
| 20260505122728 | 71 | 214 | 4.0 | 7.0 | 0.00 | 0.00 | 0.00 | 90 | 1006.3 |
| 20260505122225 | 71 | 178 | 3.0 | 8.0 | 0.00 | 0.00 | 0.00 | 90 | 1006.2 |
| 20260505121717 | 71 | 105 | 1.0 | 4.0 | 0.00 | 0.00 | 0.00 | 90 | 1006.2 |
| 20260505121213 | 71 | 215 | 0.0 | 6.0 | 0.00 | 0.00 | 0.00 | 90 | 1006.4 |
| 20260505120710 | 71 | 323 | 2.0 | 3.0 | 0.00 | 0.00 | 0.00 | 91 | 1006.1 |
| 20260505120205 | 70 | 52 | 2.0 | 5.0 | 0.00 | 0.00 | 0.00 | 91 | 1006.2 |
| 20260505115658 | 70 | 330 | 0.0 | 4.0 | 0.00 | 0.00 | 0.00 | 91 | 1006.2 |
| 20260505115157 | 70 | 217 | 3.0 | 6.0 | 0.00 | 0.00 | 0.00 | 91 | 1006.0 |
| 20260505114654 | 70 | 324 | 1.0 | 5.0 | 0.00 | 0.00 | 0.00 | 91 | 1005.8 |
| 20260505114150 | 70 | 196 | 1.0 | 4.0 | 0.00 | 0.00 | 0.00 | 91 | 1006.0 |
| 20260505113647 | 70 | 53 | 4.0 | 6.0 | 0.00 | 0.00 | 0.00 | 91 | 1006.0 |
| 20260505113144 | 70 | 243 | 0.0 | 3.0 | 0.00 | 0.00 | 0.00 | 91 | 1006.1 |
| 20260505112640 | 70 | 231 | 1.0 | 3.0 | 0.00 | 0.00 | 0.00 | 91 | 1006.0 |
| 20260505112138 | 71 | 242 | 1.0 | 6.0 | 0.00 | 0.00 | 0.00 | 91 | 1005.9 |
| 20260505111637 | 71 | 311 | 2.0 | 4.0 | 0.00 | 0.00 | 0.00 | 90 | 1005.9 |
| 20260505111133 | 71 | 22 | 0.0 | 9.0 | 0.00 | 0.00 | 0.00 | 90 | 1006.0 |
| 20260505110629 | 71 | 68 | 0.0 | 7.0 | 0.00 | 0.00 | 0.00 | 90 | 1006.1 |
| 20260505110127 | 71 | 63 | 2.0 | 6.0 | 0.00 | 0.00 | 0.00 | 90 | 1006.3 |
| 20260505102102 | 71 | 88 | 2.0 | 10.0 | 0.00 | 0.00 | 0.00 | 90 | 1006.1 |
| 20260505101601 | 71 | 177 | 2.0 | 11.0 | 0.00 | 0.00 | 0.00 | 90 | 1006.1 |
| 20260505101057 | 71 | 227 | 4.0 | 5.0 | 0.00 | 0.00 | 0.00 | 90 | 1005.8 |
| 20260505100553 | 71 | 91 | 4.0 | 8.0 | 0.00 | 0.00 | 0.00 | 90 | 1005.9 |
| 20260505100050 | 71 | 100 | 0.0 | 7.0 | 0.00 | 0.00 | 0.00 | 90 | 1006.2 |
| 20260505095547 | 71 | 251 | 3.0 | 6.0 | 0.00 | 0.00 | 0.00 | 90 | 1006.0 |
| 20260505095043 | 71 | 162 | 2.0 | 7.0 | 0.00 | 0.00 | 0.00 | 90 | 1006.3 |
| 20260505094540 | 70 | 187 | 2.0 | 6.0 | 0.00 | 0.00 | 0.00 | 90 | 1006.4 |
| 20260505094036 | 70 | 245 | 0.0 | 3.0 | 0.00 | 0.00 | 0.00 | 90 | 1006.1 |
| 20260505093533 | 70 | 37 | 2.0 | 5.0 | 0.00 | 0.00 | 0.00 | 90 | 1006.1 |
| 20260505093030 | 70 | 158 | 1.0 | 6.0 | 0.00 | 0.00 | 0.00 | 90 | 1005.9 |
| 20260505092527 | 70 | 206 | 3.0 | 4.0 | 0.00 | 0.00 | 0.00 | 90 | 1006.1 |
| 20260505092026 | 70 | 80 | 0.0 | 4.0 | 0.00 | 0.00 | 0.00 | 90 | 1006.0 |
| 20260505091522 | 70 | 257 | 1.0 | 6.0 | 0.00 | 0.00 | 0.00 | 90 | 1006.2 |
| 20260505091020 | 70 | 246 | 1.0 | 4.0 | 0.00 | 0.00 | 0.00 | 90 | 1006.2 |
| 20260505090518 | 70 | 75 | 2.0 | 5.0 | 0.00 | 0.00 | 0.00 | 90 | 1006.3 |
| 20260505090016 | 70 | 43 | 1.0 | 6.0 | 0.00 | 0.00 | 0.00 | 90 | 1006.3 |
| 20260505085514 | 70 | 188 | 2.0 | 6.0 | 0.00 | 0.00 | 0.00 | 90 | 1006.3 |
| 20260505085011 | 70 | 280 | 2.0 | 5.0 | 0.00 | 0.00 | 0.00 | 90 | 1006.4 |
| 20260505084509 | 70 | 260 | 3.0 | 5.0 | 0.00 | 0.00 | 0.00 | 91 | 1006.4 |
| 20260505084007 | 70 | 68 | 2.0 | 5.0 | 0.00 | 0.00 | 0.00 | 91 | 1006.7 |
| 20260505083504 | 70 | 182 | 2.0 | 10.0 | 0.00 | 0.00 | 0.00 | 90 | 1006.6 |
| 20260505083000 | 70 | 122 | 1.0 | 6.0 | 0.00 | 0.00 | 0.00 | 90 | 1006.5 |
| 20260505082455 | 70 | 185 | 2.0 | 6.0 | 0.00 | 0.00 | 0.00 | 90 | 1006.8 |
| 20260505081953 | 70 | 160 | 0.0 | 7.0 | 0.00 | 0.00 | 0.00 | 90 | 1006.8 |
| 20260505081449 | 70 | 343 | 2.0 | 9.0 | 0.00 | 0.00 | 0.00 | 90 | 1007.0 |
| 20260505080946 | 70 | 279 | 0.0 | 4.0 | 0.00 | 0.00 | 0.00 | 90 | 1007.1 |
| 20260505080442 | 70 | 255 | 1.0 | 6.0 | 0.00 | 0.00 | 0.00 | 90 | 1007.2 |
| 20260505075938 | 70 | 116 | 3.0 | 6.0 | 0.00 | 0.00 | 0.00 | 90 | 1006.9 |
| 20260505075435 | 70 | 57 | 0.0 | 4.0 | 0.00 | 0.00 | 0.00 | 90 | 1006.9 |
| 20260505074932 | 70 | 73 | 3.0 | 5.0 | 0.00 | 0.00 | 0.00 | 90 | 1006.9 |
| 20260505074430 | 70 | 223 | 1.0 | 4.0 | 0.00 | 0.00 | 0.00 | 90 | 1007.1 |
| 20260505073926 | 71 | 308 | 1.0 | 4.0 | 0.00 | 0.00 | 0.00 | 90 | 1007.3 |
| 20260505073424 | 71 | 232 | 0.0 | 4.0 | 0.00 | 0.00 | 0.00 | 90 | 1007.3 |
| 20260505072921 | 71 | 227 | 4.0 | 4.0 | 0.00 | 0.00 | 0.00 | 90 | 1007.5 |
| 20260505072417 | 71 | 238 | 0.0 | 11.0 | 0.00 | 0.00 | 0.00 | 90 | 1007.2 |
| 20260505071914 | 71 | 243 | 2.0 | 3.0 | 0.00 | 0.00 | 0.00 | 90 | 1007.3 |
| 20260505071410 | 71 | 187 | 2.0 | 9.0 | 0.00 | 0.00 | 0.00 | 89 | 1007.6 |
| 20260505070908 | 71 | 55 | 3.0 | 5.0 | 0.00 | 0.00 | 0.00 | 89 | 1007.6 |
| 20260505070404 | 71 | 238 | 4.0 | 9.0 | 0.00 | 0.00 | 0.00 | 89 | 1007.5 |
| 20260505065900 | 71 | 204 | 2.0 | 6.0 | 0.00 | 0.00 | 0.00 | 89 | 1007.7 |
| 20260505065357 | 71 | 42 | 2.0 | 11.0 | 0.00 | 0.00 | 0.00 | 89 | 1007.6 |
| 20260505064853 | 71 | 225 | 2.0 | 8.0 | 0.00 | 0.00 | 0.00 | 89 | 1007.8 |
| 20260505064351 | 71 | 79 | 2.0 | 4.0 | 0.00 | 0.00 | 0.00 | 89 | 1007.7 |
| 20260505063849 | 71 | 14 | 1.0 | 4.0 | 0.00 | 0.00 | 0.00 | 89 | 1007.6 |
| 20260505063344 | 71 | 227 | 2.0 | 6.0 | 0.00 | 0.00 | 0.00 | 89 | 1007.7 |
| 20260505062841 | 71 | 346 | 0.0 | 6.0 | 0.00 | 0.00 | 0.00 | 89 | 1007.5 |
| 20260505062339 | 71 | 43 | 0.0 | 7.0 | 0.00 | 0.00 | 0.00 | 89 | 1007.6 |
| 20260505061835 | 71 | 130 | 0.0 | 5.0 | 0.00 | 0.00 | 0.00 | 89 | 1007.6 |
| 20260505061334 | 71 | 249 | 2.0 | 6.0 | 0.00 | 0.00 | 0.00 | 89 | 1007.8 |
| 20260505060831 | 71 | 240 | 2.0 | 8.0 | 0.00 | 0.00 | 0.00 | 89 | 1007.7 |
| 20260505060328 | 71 | 214 | 1.0 | 8.0 | 0.00 | 0.00 | 0.00 | 89 | 1008.2 |
| 20260505055824 | 71 | 154 | 5.0 | 7.0 | 0.00 | 0.00 | 0.00 | 89 | 1008.1 |
| 20260505055319 | 71 | 86 | 2.0 | 6.0 | 0.00 | 0.00 | 0.00 | 89 | 1007.9 |